Wetterdaten: Donnerstag, 30.04.2015
Datum Zeit Temp. A. Feuchte A. Luftdruck Regen Wind Richtung Richtung Sonnenschein ET UV Solar Taupunkt Windchill Windben Empfang
30.04.2015 00:00 7,3 C 53 % 1015,2 hPa 0,0 l/m 1,8 km/h (1 Bft) O 98 0 min 0,000 mm 0,0 UV-I 0 W/m -1,6 C 7,3 C 4,0 km/h (1 Bft) 0,00 %
30.04.2015 00:15 7,5 C 52 % 1015,2 hPa 0,0 l/m 9,7 km/h (2 Bft) O-SO 107 0 min 0,000 mm 0,0 UV-I 0 W/m -1,7 C 5,0 C 11,9 km/h (2 Bft) 0,00 %
30.04.2015 00:30 7,6 C 52 % 1015,2 hPa 0,0 l/m 14,0 km/h (3 Bft) O 87 0 min 0,000 mm 0,0 UV-I 0 W/m -1,6 C 2,7 C 15,8 km/h (3 Bft) 0,00 %
30.04.2015 00:45 7,2 C 53 % 1015,3 hPa 0,0 l/m 4,0 km/h (1 Bft) O 81 0 min 0,000 mm 0,0 UV-I 0 W/m -1,7 C 7,2 C 7,9 km/h (2 Bft) 0,00 %
30.04.2015 01:00 6,8 C 57 % 1015,4 hPa 0,0 l/m 0,0 km/h (0 Bft) O-SO 117 0 min 0,000 mm 0,0 UV-I 0 W/m -1,1 C 6,8 C 0,0 km/h (0 Bft) 0,00 %
30.04.2015 01:15 6,3 C 60 % 1015,5 hPa 0,0 l/m 0,7 km/h (0 Bft) O-SO 109 0 min 0,000 mm 0,0 UV-I 0 W/m -0,9 C 6,3 C 4,0 km/h (1 Bft) 0,00 %
30.04.2015 01:30 5,8 C 61 % 1015,2 hPa 0,0 l/m 4,0 km/h (1 Bft) O-SO 102 0 min 0,000 mm 0,0 UV-I 0 W/m -1,1 C 5,8 C 7,9 km/h (2 Bft) 0,00 %
30.04.2015 01:45 5,5 C 65 % 1015,6 hPa 0,0 l/m 0,0 km/h (0 Bft) O-SO 122 0 min 0,000 mm 0,0 UV-I 0 W/m -0,5 C 5,5 C 0,0 km/h (0 Bft) 0,00 %
30.04.2015 02:00 5,2 C 66 % 1015,8 hPa 0,0 l/m 0,0 km/h (0 Bft) S 172 0 min 0,000 mm 0,0 UV-I 0 W/m -0,6 C 5,2 C 0,0 km/h (0 Bft) 0,00 %
30.04.2015 02:15 5,1 C 64 % 1015,7 hPa 0,0 l/m 0,0 km/h (0 Bft) S 181 0 min 0,000 mm 0,0 UV-I 0 W/m -1,1 C 5,1 C 0,0 km/h (0 Bft) 0,00 %
30.04.2015 02:30 5,1 C 64 % 1015,9 hPa 0,0 l/m 0,0 km/h (0 Bft) S 182 0 min 0,000 mm 0,0 UV-I 0 W/m -1,1 C 5,1 C 0,0 km/h (0 Bft) 0,00 %
30.04.2015 02:45 4,5 C 68 % 1015,8 hPa 0,0 l/m 0,0 km/h (0 Bft) S 175 0 min 0,000 mm 0,0 UV-I 0 W/m -0,9 C 4,5 C 0,0 km/h (0 Bft) 0,00 %
30.04.2015 03:00 4,2 C 71 % 1015,8 hPa 0,0 l/m 0,0 km/h (0 Bft) S-SW 196 0 min 0,000 mm 0,0 UV-I 0 W/m -0,6 C 4,2 C 0,0 km/h (0 Bft) 0,00 %
30.04.2015 03:15 3,6 C 75 % 1016,0 hPa 0,0 l/m 0,0 km/h (0 Bft) S 174 0 min 0,000 mm 0,0 UV-I 0 W/m -0,4 C 3,6 C 0,0 km/h (0 Bft) 0,00 %
30.04.2015 03:30 3,2 C 76 % 1016,0 hPa 0,0 l/m 0,0 km/h (0 Bft) S-SW 195 0 min 0,000 mm 0,0 UV-I 0 W/m -0,6 C 3,2 C 0,0 km/h (0 Bft) 0,00 %
30.04.2015 03:45 3,1 C 76 % 1016,0 hPa 0,0 l/m 0,0 km/h (0 Bft) S 181 0 min 0,000 mm 0,0 UV-I 0 W/m -0,7 C 3,1 C 0,0 km/h (0 Bft) 0,00 %
30.04.2015 04:00 3,3 C 73 % 1016,2 hPa 0,0 l/m 0,0 km/h (0 Bft) S 179 0 min 0,000 mm 0,0 UV-I 0 W/m -1,1 C 3,3 C 0,0 km/h (0 Bft) 0,00 %
30.04.2015 04:15 3,0 C 78 % 1016,2 hPa 0,0 l/m 0,0 km/h (0 Bft) S 180 0 min 0,000 mm 0,0 UV-I 0 W/m -0,5 C 3,0 C 0,0 km/h (0 Bft) 0,00 %
30.04.2015 04:30 2,4 C 78 % 1016,3 hPa 0,0 l/m 0,0 km/h (0 Bft) S 185 0 min 0,000 mm 0,0 UV-I 0 W/m -1,0 C 2,4 C 0,0 km/h (0 Bft) 0,00 %
30.04.2015 04:45 2,6 C 86 % 1016,4 hPa 0,0 l/m 0,0 km/h (0 Bft) S 177 0 min 0,000 mm 0,0 UV-I 0 W/m 0,5 C 2,6 C 0,0 km/h (0 Bft) 0,00 %
30.04.2015 05:00 2,5 C 89 % 1016,4 hPa 0,0 l/m 0,0 km/h (0 Bft) S 185 0 min 0,000 mm 0,0 UV-I 0 W/m 0,9 C 2,5 C 0,0 km/h (0 Bft) 0,00 %
30.04.2015 05:15 2,4 C 86 % 1016,4 hPa 0,0 l/m 0,0 km/h (0 Bft) S 186 0 min 0,000 mm 0,0 UV-I 0 W/m 0,3 C 2,4 C 0,0 km/h (0 Bft) 0,00 %
30.04.2015 05:30 2,1 C 87 % 1016,5 hPa 0,0 l/m 0,0 km/h (0 Bft) S 185 0 min 0,000 mm 0,0 UV-I 0 W/m 0,2 C 2,1 C 0,0 km/h (0 Bft) 0,00 %
30.04.2015 05:45 2,0 C 88 % 1016,3 hPa 0,0 l/m 0,0 km/h (0 Bft) S 185 0 min 0,000 mm 0,0 UV-I 0 W/m 0,2 C 2,0 C 0,0 km/h (0 Bft) 0,00 %
30.04.2015 06:00 2,2 C 88 % 1016,8 hPa 0,0 l/m 0,0 km/h (0 Bft) S 184 0 min 0,000 mm 0,0 UV-I 7 W/m 0,4 C 2,2 C 0,0 km/h (0 Bft) 0,00 %
30.04.2015 06:15 2,8 C 92 % 1016,7 hPa 0,0 l/m 0,0 km/h (0 Bft) S 184 15 min 0,000 mm 0,0 UV-I 48 W/m 1,6 C 2,8 C 0,0 km/h (0 Bft) 0,00 %
30.04.2015 06:30 4,3 C 87 % 1016,7 hPa 0,0 l/m 0,0 km/h (0 Bft) S-SW 192 15 min 0,000 mm 0,0 UV-I 92 W/m 2,3 C 4,3 C 0,0 km/h (0 Bft) 0,00 %
30.04.2015 06:45 5,1 C 81 % 1016,8 hPa 0,0 l/m 0,0 km/h (0 Bft) S-SW 195 15 min 0,000 mm 0,0 UV-I 113 W/m 2,1 C 5,1 C 0,0 km/h (0 Bft) 0,00 %
30.04.2015 07:00 5,7 C 76 % 1016,7 hPa 0,0 l/m 0,0 km/h (0 Bft) S-SW 208 0 min 0,000 mm 1,0 UV-I 63 W/m 1,8 C 5,7 C 0,0 km/h (0 Bft) 0,00 %
30.04.2015 07:15 5,6 C 77 % 1016,8 hPa 0,0 l/m 0,0 km/h (0 Bft) S-SW 208 0 min 0,000 mm 1,0 UV-I 94 W/m 1,9 C 5,6 C 0,0 km/h (0 Bft) 0,00 %
30.04.2015 07:30 6,0 C 75 % 1017,0 hPa 0,0 l/m 0,0 km/h (0 Bft) SW 224 0 min 0,000 mm 1,0 UV-I 105 W/m 1,9 C 6,0 C 0,0 km/h (0 Bft) 0,00 %
30.04.2015 07:45 5,9 C 74 % 1017,1 hPa 0,0 l/m 0,0 km/h (0 Bft) SW 234 0 min 0,000 mm 1,0 UV-I 100 W/m 1,6 C 5,9 C 0,0 km/h (0 Bft) 0,00 %
30.04.2015 08:00 6,6 C 70 % 1017,1 hPa 0,0 l/m 0,0 km/h (0 Bft) SW 228 0 min 0,000 mm 1,0 UV-I 139 W/m 1,5 C 6,6 C 0,0 km/h (0 Bft) 0,00 %
30.04.2015 08:15 8,0 C 64 % 1017,0 hPa 0,0 l/m 0,0 km/h (0 Bft) SW 236 15 min 0,000 mm 2,0 UV-I 250 W/m 1,6 C 8,0 C 0,0 km/h (0 Bft) 0,00 %
30.04.2015 08:30 9,3 C 58 % 1016,9 hPa 0,0 l/m 0,0 km/h (0 Bft) SW 228 15 min 0,000 mm 2,0 UV-I 271 W/m 1,5 C 9,3 C 0,0 km/h (0 Bft) 0,00 %
30.04.2015 08:45 10,4 C 56 % 1016,8 hPa 0,0 l/m 0,0 km/h (0 Bft) SW 215 0 min 0,000 mm 2,0 UV-I 250 W/m 2,0 C 10,4 C 0,0 km/h (0 Bft) 0,00 %
30.04.2015 09:00 9,7 C 58 % 1016,8 hPa 0,0 l/m 0,0 km/h (0 Bft) S-SW 195 0 min 0,000 mm 2,0 UV-I 271 W/m 1,8 C 9,7 C 0,0 km/h (0 Bft) 0,00 %
30.04.2015 09:15 9,7 C 59 % 1017,0 hPa 0,0 l/m 0,0 km/h (0 Bft) S-SW 206 0 min 0,000 mm 2,0 UV-I 250 W/m 2,1 C 9,7 C 0,0 km/h (0 Bft) 0,00 %
30.04.2015 09:30 10,2 C 58 % 1017,1 hPa 0,0 l/m 0,7 km/h (0 Bft) W-SW 252 0 min 0,000 mm 2,0 UV-I 231 W/m 2,3 C 10,2 C 4,0 km/h (1 Bft) 0,00 %
30.04.2015 09:45 10,4 C 59 % 1017,1 hPa 0,0 l/m 0,0 km/h (0 Bft) O-NO 73 0 min 0,000 mm 2,0 UV-I 253 W/m 2,7 C 10,4 C 0,0 km/h (0 Bft) 0,00 %
30.04.2015 10:00 11,1 C 54 % 1016,9 hPa 0,0 l/m 2,9 km/h (1 Bft) W-SW 239 0 min 0,000 mm 3,0 UV-I 288 W/m 2,2 C 11,1 C 4,0 km/h (1 Bft) 0,00 %
30.04.2015 10:15 12,2 C 54 % 1016,8 hPa 0,0 l/m 0,0 km/h (0 Bft) S 174 0 min 0,000 mm 3,0 UV-I 356 W/m 3,2 C 12,2 C 0,0 km/h (0 Bft) 0,00 %
30.04.2015 10:30 13,5 C 52 % 1016,5 hPa 0,0 l/m 0,7 km/h (0 Bft) W-NW 303 15 min 0,000 mm 3,0 UV-I 468 W/m 3,8 C 13,5 C 4,0 km/h (1 Bft) 0,00 %
30.04.2015 10:45 13,2 C 57 % 1016,8 hPa 0,0 l/m 1,4 km/h (1 Bft) S-SW 194 15 min 0,000 mm 3,0 UV-I 461 W/m 4,9 C 13,2 C 4,0 km/h (1 Bft) 0,00 %
30.04.2015 11:00 13,9 C 55 % 1016,6 hPa 0,0 l/m 0,7 km/h (0 Bft) SW 231 15 min 0,000 mm 2,0 UV-I 459 W/m 5,0 C 13,9 C 4,0 km/h (1 Bft) 0,00 %
30.04.2015 11:15 12,7 C 66 % 1016,9 hPa 0,0 l/m 5,8 km/h (2 Bft) W-SW 251 15 min 0,000 mm 2,0 UV-I 427 W/m 6,5 C 12,7 C 7,9 km/h (2 Bft) 0,00 %
30.04.2015 11:30 12,4 C 69 % 1017,1 hPa 0,0 l/m 4,0 km/h (1 Bft) N 351 0 min 0,000 mm 4,0 UV-I 311 W/m 6,9 C 12,4 C 7,9 km/h (2 Bft) 0,00 %
30.04.2015 11:45 12,8 C 67 % 1017,0 hPa 0,0 l/m 5,8 km/h (2 Bft) W-SW 256 0 min 0,000 mm 4,0 UV-I 289 W/m 6,8 C 12,8 C 11,9 km/h (2 Bft) 0,00 %
30.04.2015 12:00 13,0 C 67 % 1016,7 hPa 0,0 l/m 10,8 km/h (2 Bft) SW 233 15 min 0,000 mm 4,0 UV-I 520 W/m 7,0 C 10,5 C 19,8 km/h (3 Bft) 0,00 %
30.04.2015 12:15 13,3 C 68 % 1016,8 hPa 0,0 l/m 4,0 km/h (1 Bft) W-NW 288 15 min 0,000 mm 2,0 UV-I 533 W/m 7,5 C 13,3 C 7,9 km/h (2 Bft) 0,00 %
30.04.2015 12:30 11,7 C 72 % 1017,0 hPa 0,0 l/m 3,2 km/h (1 Bft) NW 316 15 min 0,000 mm 1,0 UV-I 572 W/m 6,8 C 11,7 C 11,9 km/h (2 Bft) 0,00 %
30.04.2015 12:45 11,1 C 81 % 1017,1 hPa 0,3 l/m 9,7 km/h (2 Bft) W-SW 254 0 min 0,000 mm 2,0 UV-I 221 W/m 8,0 C 9,0 C 11,9 km/h (2 Bft) 0,00 %
30.04.2015 13:00 10,2 C 85 % 1017,0 hPa 0,9 l/m 6,5 km/h (2 Bft) W-SW 255 0 min 0,000 mm 1,0 UV-I 179 W/m 7,8 C 10,2 C 11,9 km/h (2 Bft) 0,00 %
30.04.2015 13:15 9,9 C 87 % 1017,2 hPa 0,6 l/m 4,0 km/h (1 Bft) NW 316 0 min 0,000 mm 1,0 UV-I 195 W/m 7,8 C 9,9 C 7,9 km/h (2 Bft) 0,00 %
30.04.2015 13:30 10,1 C 85 % 1017,1 hPa 0,0 l/m 1,8 km/h (1 Bft) S-SW 206 0 min 0,000 mm 2,0 UV-I 161 W/m 7,7 C 10,1 C 4,0 km/h (1 Bft) 0,00 %
30.04.2015 13:45 10,5 C 83 % 1016,9 hPa 0,0 l/m 0,0 km/h (0 Bft) S 179 0 min 0,000 mm 2,0 UV-I 129 W/m 7,7 C 10,5 C 0,0 km/h (0 Bft) 0,00 %
30.04.2015 14:00 11,1 C 81 % 1016,6 hPa 0,0 l/m 4,3 km/h (1 Bft) NW 309 0 min 0,000 mm 3,0 UV-I 231 W/m 8,0 C 11,1 C 7,9 km/h (2 Bft) 0,00 %
30.04.2015 14:15 11,2 C 79 % 1016,7 hPa 0,3 l/m 0,7 km/h (0 Bft) SW 230 0 min 0,000 mm 3,0 UV-I 270 W/m 7,7 C 11,2 C 4,0 km/h (1 Bft) 0,00 %
30.04.2015 14:30 10,9 C 77 % 1016,6 hPa 0,0 l/m 0,0 km/h (0 Bft) N 357 0 min 0,000 mm 2,0 UV-I 396 W/m 7,0 C 10,9 C 0,0 km/h (0 Bft) 0,00 %
30.04.2015 14:45 10,9 C 77 % 1016,5 hPa 0,0 l/m 0,0 km/h (0 Bft) W-SW 254 0 min 0,000 mm 2,0 UV-I 353 W/m 7,0 C 10,9 C 0,0 km/h (0 Bft) 0,00 %
30.04.2015 15:00 11,1 C 74 % 1016,4 hPa 0,0 l/m 4,7 km/h (1 Bft) W-SW 252 0 min 0,000 mm 1,0 UV-I 265 W/m 6,6 C 11,1 C 7,9 km/h (2 Bft) 0,00 %
30.04.2015 15:15 10,9 C 73 % 1016,2 hPa 0,0 l/m 1,4 km/h (1 Bft) SW 228 0 min 0,000 mm 1,0 UV-I 284 W/m 6,3 C 10,9 C 4,0 km/h (1 Bft) 0,00 %
30.04.2015 15:30 10,7 C 73 % 1016,2 hPa 0,0 l/m 1,4 km/h (1 Bft) SW 225 0 min 0,000 mm 1,0 UV-I 191 W/m 6,1 C 10,7 C 4,0 km/h (1 Bft) 0,00 %
30.04.2015 15:45 10,3 C 76 % 1016,3 hPa 0,0 l/m 0,0 km/h (0 Bft) SW 235 0 min 0,000 mm 1,0 UV-I 157 W/m 6,3 C 10,3 C 0,0 km/h (0 Bft) 0,00 %
30.04.2015 16:00 10,3 C 76 % 1016,2 hPa 0,0 l/m 0,0 km/h (0 Bft) S-SW 202 0 min 0,000 mm 1,0 UV-I 119 W/m 6,3 C 10,3 C 0,0 km/h (0 Bft) 0,00 %
30.04.2015 16:15 10,3 C 76 % 1016,1 hPa 0,0 l/m 0,0 km/h (0 Bft) O-SO 106 0 min 0,000 mm 1,0 UV-I 122 W/m 6,3 C 10,3 C 0,0 km/h (0 Bft) 0,00 %
30.04.2015 16:30 10,6 C 74 % 1015,9 hPa 0,0 l/m 0,0 km/h (0 Bft) S-SW 199 0 min 0,000 mm 2,0 UV-I 131 W/m 6,2 C 10,6 C 0,0 km/h (0 Bft) 0,00 %
30.04.2015 16:45 11,3 C 71 % 1015,9 hPa 0,0 l/m 0,4 km/h (0 Bft) W-SW 252 0 min 0,000 mm 2,0 UV-I 145 W/m 6,2 C 11,3 C 4,0 km/h (1 Bft) 0,00 %
30.04.2015 17:00 13,2 C 59 % 1015,3 hPa 0,0 l/m 0,0 km/h (0 Bft) S-SW 196 0 min 0,000 mm 2,0 UV-I 210 W/m 5,4 C 13,2 C 0,0 km/h (0 Bft) 0,00 %
30.04.2015 17:15 14,1 C 54 % 1015,2 hPa 0,0 l/m 0,0 km/h (0 Bft) S 182 15 min 0,000 mm 2,0 UV-I 817 W/m 4,9 C 14,1 C 0,0 km/h (0 Bft) 0,00 %
30.04.2015 17:30 13,7 C 52 % 1015,1 hPa 0,0 l/m 0,4 km/h (0 Bft) SW 225 15 min 0,000 mm 1,0 UV-I 684 W/m 4,0 C 13,7 C 4,0 km/h (1 Bft) 0,00 %
30.04.2015 17:45 14,3 C 48 % 1014,6 hPa 0,0 l/m 0,0 km/h (0 Bft) S-SW 192 15 min 0,000 mm 1,0 UV-I 692 W/m 3,4 C 14,3 C 0,0 km/h (0 Bft) 0,00 %
30.04.2015 18:00 14,4 C 47 % 1014,5 hPa 0,0 l/m 0,0 km/h (0 Bft) S-SW 193 15 min 0,000 mm 1,0 UV-I 663 W/m 3,2 C 14,4 C 0,0 km/h (0 Bft) 0,00 %
30.04.2015 18:15 13,9 C 45 % 1014,1 hPa 0,0 l/m 1,4 km/h (1 Bft) SO 135 15 min 0,000 mm 1,0 UV-I 640 W/m 2,2 C 13,9 C 4,0 km/h (1 Bft) 0,00 %
30.04.2015 18:30 13,0 C 51 % 1014,3 hPa 0,0 l/m 0,0 km/h (0 Bft) S 176 15 min 0,000 mm 1,0 UV-I 588 W/m 3,1 C 13,0 C 0,0 km/h (0 Bft) 0,00 %
30.04.2015 18:45 13,4 C 53 % 1014,3 hPa 0,0 l/m 0,0 km/h (0 Bft) N-NW 344 15 min 0,000 mm 1,0 UV-I 550 W/m 4,0 C 13,4 C 0,0 km/h (0 Bft) 0,00 %
30.04.2015 19:00 12,9 C 53 % 1014,3 hPa 0,0 l/m 0,0 km/h (0 Bft) SO 146 15 min 0,000 mm 1,0 UV-I 503 W/m 3,6 C 12,9 C 0,0 km/h (0 Bft) 0,00 %
30.04.2015 19:15 12,0 C 58 % 1014,4 hPa 0,0 l/m 0,0 km/h (0 Bft) S 175 15 min 0,000 mm 1,0 UV-I 465 W/m 4,0 C 12,0 C 0,0 km/h (0 Bft) 0,00 %
30.04.2015 19:30 11,4 C 66 % 1014,1 hPa 0,0 l/m 0,0 km/h (0 Bft) S-SO 164 15 min 0,000 mm 0,0 UV-I 207 W/m 5,3 C 11,4 C 0,0 km/h (0 Bft) 0,00 %
30.04.2015 19:45 10,2 C 74 % 1014,2 hPa 0,0 l/m 0,0 km/h (0 Bft) S 183 15 min 0,000 mm 0,0 UV-I 193 W/m 5,8 C 10,2 C 0,0 km/h (0 Bft) 0,00 %
30.04.2015 20:00 9,6 C 80 % 1014,0 hPa 0,0 l/m 0,0 km/h (0 Bft) SO 130 15 min 0,000 mm 0,0 UV-I 69 W/m 6,3 C 9,6 C 0,0 km/h (0 Bft) 0,00 %
30.04.2015 20:15 9,0 C 81 % 1014,4 hPa 0,0 l/m 0,0 km/h (0 Bft) O-SO 122 0 min 0,000 mm 0,0 UV-I 29 W/m 5,9 C 9,0 C 0,0 km/h (0 Bft) 0,00 %
30.04.2015 20:30 8,6 C 83 % 1014,4 hPa 0,0 l/m 1,8 km/h (1 Bft) O 101 0 min 0,000 mm 0,0 UV-I 6 W/m 5,9 C 8,6 C 4,0 km/h (1 Bft) 0,00 %
30.04.2015 20:45 8,4 C 84 % 1014,5 hPa 0,0 l/m 0,0 km/h (0 Bft) O-SO 102 0 min 0,000 mm 0,0 UV-I 0 W/m 5,9 C 8,4 C 0,0 km/h (0 Bft) 0,00 %
30.04.2015 21:00 8,1 C 83 % 1014,3 hPa 0,0 l/m 0,0 km/h (0 Bft) O-SO 120 0 min 0,000 mm 0,0 UV-I 0 W/m 5,4 C 8,1 C 0,0 km/h (0 Bft) 0,00 %
30.04.2015 21:15 7,9 C 83 % 1014,2 hPa 0,0 l/m 0,0 km/h (0 Bft) SO 129 0 min 0,000 mm 0,0 UV-I 0 W/m 5,2 C 7,9 C 0,0 km/h (0 Bft) 0,00 %
30.04.2015 21:30 7,8 C 84 % 1013,9 hPa 0,0 l/m 0,7 km/h (0 Bft) O-SO 108 0 min 0,000 mm 0,0 UV-I 0 W/m 5,3 C 7,8 C 4,0 km/h (1 Bft) 0,00 %
30.04.2015 21:45 7,7 C 84 % 1013,8 hPa 0,0 l/m 0,7 km/h (0 Bft) SO 138 0 min 0,000 mm 0,0 UV-I 0 W/m 5,2 C 7,7 C 4,0 km/h (1 Bft) 0,00 %
30.04.2015 22:00 7,6 C 84 % 1013,8 hPa 0,0 l/m 0,0 km/h (0 Bft) O-SO 118 0 min 0,000 mm 0,0 UV-I 0 W/m 5,1 C 7,6 C 0,0 km/h (0 Bft) 0,00 %
30.04.2015 22:15 7,5 C 84 % 1013,3 hPa 0,0 l/m 2,9 km/h (1 Bft) O 87 0 min 0,000 mm 0,0 UV-I 0 W/m 5,0 C 7,5 C 4,0 km/h (1 Bft) 0,00 %
30.04.2015 22:30 7,1 C 86 % 1013,3 hPa 0,0 l/m 3,2 km/h (1 Bft) O-SO 111 0 min 0,000 mm 0,0 UV-I 0 W/m 4,9 C 7,1 C 4,0 km/h (1 Bft) 0,00 %
30.04.2015 22:45 7,2 C 86 % 1012,9 hPa 0,0 l/m 0,0 km/h (0 Bft) SO 132 0 min 0,000 mm 0,0 UV-I 0 W/m 5,0 C 7,2 C 0,0 km/h (0 Bft) 0,00 %
30.04.2015 23:00 7,0 C 88 % 1013,2 hPa 0,0 l/m 0,0 km/h (0 Bft) S 174 0 min 0,000 mm 0,0 UV-I 0 W/m 5,2 C 7,0 C 0,0 km/h (0 Bft) 0,00 %
30.04.2015 23:15 6,9 C 89 % 1013,3 hPa 0,0 l/m 0,0 km/h (0 Bft) S 174 0 min 0,000 mm 0,0 UV-I 0 W/m 5,2 C 6,9 C 0,0 km/h (0 Bft) 0,00 %
30.04.2015 23:30 6,8 C 89 % 1013,4 hPa 0,0 l/m 0,0 km/h (0 Bft) S 174 0 min 0,000 mm 0,0 UV-I 0 W/m 5,1 C 6,8 C 0,0 km/h (0 Bft) 0,00 %
30.04.2015 23:45 6,5 C 91 % 1013,4 hPa 0,0 l/m 0,0 km/h (0 Bft) S 180 0 min 0,000 mm 0,0 UV-I 0 W/m 5,1 C 6,5 C 0,0 km/h (0 Bft) 0,00 %
_ Min-Zeit 05:45 18:15 22:45 - 01:00 - - - - - - 00:45 05:45 01:00 00:00
Minimum _ 2,0 C 45 % 1012,9 hPa - 0,0 km/h (0 Bft) - - - - - - -1,7 C 2,0 C 0,0 km/h (0 Bft) 0,00 %
_ Max-Zeit 18:00 06:15 13:15 13:00 00:30 - - 06:15 00:00 11:30 17:15 12:45 18:00 12:00 00:00
Maximum _ 14,4 C 92 % 1017,2 hPa 0,9 l/m 14,0 km/h
O (3 Bft)
- - 15 min 0,000 mm 4,0 UV-I 817 W/m 8,0 C 14,4 C 19,8 km/h
SW (3 Bft)
0,00 %
Durchschnitt _ 8,6 C 71 % 1015,7 hPa #2,1 l/m 1,2 km/h (1 Bft) W-SW - #6:00 h #0,000 mm 1,8 UV-I 290 W/m 3,5 C 8,4 C 2,4 km/h (1 Bft) 0,00 %